| time (UTC) | temp F | wind direction | speed MPH | gust MPH | rain 1hr in | rain 24hr in | rain mn in | humidity % | barometer mb |
| 20260507191405 | 77 | 22 | 3.0 | 8.0 | 0.00 | 0.00 | 0.00 | 68 | 1014.6 |
| 20260507190904 | 78 | 25 | 4.0 | 8.0 | 0.00 | 0.00 | 0.00 | 66 | 1014.6 |
| 20260507190404 | 78 | 43 | 2.0 | 8.0 | 0.00 | 0.00 | 0.00 | 68 | 1014.6 |
| 20260507185404 | 77 | 24 | 2.0 | 10.0 | 0.00 | 0.00 | 0.00 | 68 | 1014.6 |
| 20260507184904 | 76 | 356 | 3.0 | 10.0 | 0.00 | 0.00 | 0.00 | 71 | 1014.7 |
| 20260507184404 | 75 | 60 | 3.0 | 9.0 | 0.00 | 0.00 | 0.00 | 71 | 1014.7 |
| 20260507183905 | 75 | 40 | 5.0 | 10.0 | 0.00 | 0.00 | 0.00 | 71 | 1014.8 |
| 20260507183404 | 75 | 54 | 5.0 | 10.0 | 0.00 | 0.00 | 0.00 | 71 | 1014.8 |
| 20260507182904 | 74 | 23 | 6.0 | 10.0 | 0.00 | 0.00 | 0.00 | 72 | 1014.8 |
| 20260507182404 | 74 | 36 | 6.0 | 9.0 | 0.00 | 0.00 | 0.00 | 72 | 1014.9 |
| 20260507181904 | 73 | 358 | 2.0 | 9.0 | 0.00 | 0.00 | 0.00 | 72 | 1014.9 |
| 20260507181404 | 73 | 12 | 4.0 | 9.0 | 0.00 | 0.00 | 0.00 | 73 | 1015.0 |
| 20260507180904 | 72 | 9 | 3.0 | 7.0 | 0.00 | 0.00 | 0.00 | 74 | 1015.0 |
| 20260507180404 | 72 | 59 | 3.0 | 8.0 | 0.00 | 0.00 | 0.00 | 74 | 1015.1 |
| 20260507175904 | 71 | 46 | 3.0 | 8.0 | 0.00 | 0.00 | 0.00 | 75 | 1015.2 |
| 20260507175404 | 71 | 339 | 3.0 | 8.0 | 0.00 | 0.00 | 0.00 | 74 | 1015.3 |
| 20260507174904 | 71 | 58 | 3.0 | 8.0 | 0.00 | 0.00 | 0.00 | 74 | 1015.4 |
| 20260507174404 | 70 | 15 | 5.0 | 12.0 | 0.00 | 0.00 | 0.00 | 74 | 1015.4 |
| 20260507173404 | 70 | 14 | 5.0 | 12.0 | 0.00 | 0.00 | 0.00 | 74 | 1015.5 |
| 20260507172905 | 70 | 344 | 5.0 | 8.0 | 0.00 | 0.00 | 0.00 | 74 | 1015.5 |
| 20260507172404 | 70 | 22 | 3.0 | 8.0 | 0.00 | 0.00 | 0.00 | 75 | 1015.6 |
| 20260507171905 | 70 | 47 | 4.0 | 10.0 | 0.00 | 0.00 | 0.00 | 75 | 1015.6 |
| 20260507171404 | 70 | 63 | 2.0 | 10.0 | 0.00 | 0.00 | 0.00 | 75 | 1015.6 |
| 20260507170904 | 70 | 16 | 5.0 | 10.0 | 0.00 | 0.00 | 0.00 | 75 | 1015.7 |
| 20260507170404 | 70 | 2 | 5.0 | 9.0 | 0.00 | 0.00 | 0.00 | 76 | 1015.6 |
| 20260507165904 | 69 | 59 | 3.0 | 9.0 | 0.00 | 0.00 | 0.00 | 76 | 1015.5 |
| 20260507165404 | 69 | 354 | 3.0 | 10.0 | 0.00 | 0.00 | 0.00 | 77 | 1015.5 |
| 20260507164403 | 68 | 4 | 2.0 | 10.0 | 0.00 | 0.00 | 0.00 | 78 | 1015.4 |
| 20260507163904 | 67 | 47 | 3.0 | 10.0 | 0.00 | 0.00 | 0.00 | 79 | 1015.5 |
| 20260507163404 | 67 | 11 | 3.0 | 9.0 | 0.00 | 0.00 | 0.00 | 79 | 1015.6 |
| 20260507162905 | 67 | 19 | 5.0 | 9.0 | 0.00 | 0.00 | 0.00 | 79 | 1015.6 |
| 20260507162404 | 66 | 51 | 4.0 | 9.0 | 0.00 | 0.00 | 0.00 | 79 | 1015.6 |
| 20260507161904 | 66 | 13 | 5.0 | 12.0 | 0.00 | 0.00 | 0.00 | 79 | 1015.5 |
| 20260507161404 | 66 | 26 | 4.0 | 12.0 | 0.00 | 0.00 | 0.00 | 79 | 1015.5 |
| 20260507160905 | 66 | 27 | 4.0 | 12.0 | 0.00 | 0.00 | 0.00 | 80 | 1015.5 |
| 20260507155904 | 66 | 14 | 5.0 | 10.0 | 0.00 | 0.00 | 0.00 | 80 | 1015.4 |
| 20260507155405 | 66 | 2 | 4.0 | 9.0 | 0.00 | 0.00 | 0.00 | 80 | 1015.6 |
| 20260507154904 | 66 | 34 | 3.0 | 12.0 | 0.00 | 0.00 | 0.00 | 80 | 1015.8 |
| 20260507154404 | 66 | 21 | 6.0 | 12.0 | 0.00 | 0.00 | 0.00 | 80 | 1015.8 |
| 20260507153904 | 66 | 13 | 3.0 | 9.0 | 0.00 | 0.00 | 0.00 | 80 | 1015.8 |
| 20260507153404 | 66 | 31 | 3.0 | 13.0 | 0.00 | 0.00 | 0.00 | 80 | 1015.8 |
| 20260507152904 | 66 | 41 | 3.0 | 13.0 | 0.00 | 0.00 | 0.00 | 80 | 1015.7 |
| 20260507152404 | 66 | 5 | 5.0 | 10.0 | 0.00 | 0.00 | 0.00 | 80 | 1015.6 |
| 20260507151904 | 66 | 12 | 3.0 | 12.0 | 0.00 | 0.00 | 0.00 | 80 | 1015.7 |
| 20260507150904 | 66 | 349 | 7.0 | 12.0 | 0.00 | 0.00 | 0.00 | 79 | 1015.6 |
| 20260507150403 | 66 | 26 | 6.0 | 12.0 | 0.00 | 0.00 | 0.00 | 79 | 1015.4 |
| 20260507145904 | 66 | 32 | 3.0 | 12.0 | 0.00 | 0.00 | 0.00 | 79 | 1015.3 |
| 20260507145405 | 66 | 21 | 4.0 | 12.0 | 0.00 | 0.00 | 0.00 | 79 | 1015.4 |
| 20260507144904 | 66 | 2 | 5.0 | 12.0 | 0.00 | 0.00 | 0.00 | 79 | 1015.5 |
| 20260507144404 | 66 | 17 | 4.0 | 12.0 | 0.00 | 0.00 | 0.00 | 79 | 1015.4 |
| 20260507143405 | 67 | 12 | 5.0 | 14.0 | 0.00 | 0.00 | 0.00 | 79 | 1015.3 |
| 20260507142404 | 67 | 25 | 4.0 | 14.0 | 0.00 | 0.00 | 0.00 | 79 | 1015.2 |
| 20260507141904 | 67 | 21 | 5.0 | 12.0 | 0.00 | 0.00 | 0.00 | 79 | 1015.3 |
| 20260507141403 | 67 | 17 | 6.0 | 12.0 | 0.00 | 0.00 | 0.00 | 80 | 1015.0 |
| 20260507140904 | 66 | 17 | 5.0 | 12.0 | 0.00 | 0.00 | 0.00 | 81 | 1015.0 |
| 20260507135903 | 66 | 41 | 3.0 | 9.0 | 0.00 | 0.00 | 0.00 | 82 | 1015.1 |
| 20260507135404 | 66 | 44 | 2.0 | 10.0 | 0.00 | 0.00 | 0.00 | 81 | 1015.4 |
| 20260507134905 | 66 | 23 | 6.0 | 12.0 | 0.00 | 0.00 | 0.00 | 81 | 1015.5 |
| 20260507134404 | 66 | 7 | 5.0 | 12.0 | 0.00 | 0.00 | 0.00 | 81 | 1015.6 |
| 20260507133904 | 66 | 14 | 2.0 | 12.0 | 0.00 | 0.00 | 0.00 | 81 | 1015.5 |
| 20260507133404 | 65 | 32 | 6.0 | 12.0 | 0.00 | 0.00 | 0.00 | 81 | 1015.6 |
| 20260507132905 | 66 | 34 | 7.0 | 12.0 | 0.00 | 0.00 | 0.00 | 81 | 1015.7 |
| 20260507132404 | 66 | 19 | 6.0 | 12.0 | 0.00 | 0.00 | 0.00 | 81 | 1015.6 |
| 20260507131906 | 66 | 3 | 6.0 | 12.0 | 0.00 | 0.00 | 0.00 | 81 | 1015.4 |
| 20260507131404 | 66 | 21 | 6.0 | 12.0 | 0.00 | 0.00 | 0.00 | 81 | 1015.3 |
| 20260507130904 | 66 | 14 | 6.0 | 10.0 | 0.00 | 0.00 | 0.00 | 81 | 1015.2 |
| 20260507130404 | 66 | 13 | 5.0 | 10.0 | 0.00 | 0.00 | 0.00 | 81 | 1015.2 |
| 20260507125905 | 66 | 358 | 5.0 | 9.0 | 0.00 | 0.00 | 0.00 | 81 | 1015.2 |
| 20260507125404 | 67 | 38 | 3.0 | 10.0 | 0.00 | 0.00 | 0.00 | 81 | 1015.1 |
| 20260507124904 | 67 | 356 | 4.0 | 12.0 | 0.00 | 0.00 | 0.00 | 81 | 1014.8 |
| 20260507124403 | 67 | 9 | 6.0 | 12.0 | 0.00 | 0.00 | 0.00 | 81 | 1014.6 |
| 20260507123904 | 67 | 8 | 5.0 | 10.0 | 0.00 | 0.00 | 0.00 | 81 | 1014.4 |
| 20260507123405 | 67 | 12 | 5.0 | 12.0 | 0.00 | 0.00 | 0.00 | 81 | 1014.5 |
| 20260507122904 | 67 | 40 | 5.0 | 12.0 | 0.00 | 0.00 | 0.00 | 81 | 1014.4 |
| 20260507122404 | 67 | 11 | 3.0 | 10.0 | 0.00 | 0.00 | 0.00 | 81 | 1014.4 |
| 20260507121904 | 67 | 0 | 3.0 | 10.0 | 0.00 | 0.00 | 0.00 | 81 | 1014.3 |
| 20260507121405 | 67 | 341 | 3.0 | 8.0 | 0.00 | 0.00 | 0.00 | 81 | 1014.2 |
| 20260507120905 | 67 | 338 | 3.0 | 10.0 | 0.00 | 0.00 | 0.00 | 81 | 1014.1 |
| 20260507120404 | 67 | 358 | 6.0 | 10.0 | 0.00 | 0.00 | 0.00 | 81 | 1014.0 |
| 20260507115404 | 67 | 23 | 4.0 | 8.0 | 0.00 | 0.00 | 0.00 | 81 | 1013.9 |
| 20260507114404 | 68 | 18 | 4.0 | 8.0 | 0.00 | 0.00 | 0.00 | 82 | 1013.7 |
| 20260507113404 | 68 | 13 | 2.0 | 10.0 | 0.00 | 0.00 | 0.00 | 82 | 1013.3 |
| 20260507112904 | 68 | 3 | 3.0 | 10.0 | 0.00 | 0.00 | 0.00 | 81 | 1013.3 |
| 20260507111405 | 68 | 358 | 3.0 | 8.0 | 0.00 | 0.00 | 0.00 | 81 | 1013.3 |
| 20260507110904 | 68 | 3 | 3.0 | 9.0 | 0.00 | 0.00 | 0.00 | 81 | 1013.4 |
| 20260507110404 | 68 | 354 | 5.0 | 10.0 | 0.00 | 0.00 | 0.00 | 81 | 1013.3 |
| 20260507105904 | 69 | 342 | 5.0 | 10.0 | 0.00 | 0.00 | 0.00 | 82 | 1013.4 |
| 20260507104904 | 69 | 31 | 2.0 | 9.0 | 0.00 | 0.00 | 0.00 | 82 | 1013.2 |
| 20260507104404 | 69 | 28 | 5.0 | 9.0 | 0.00 | 0.00 | 0.00 | 82 | 1013.2 |
| 20260507103904 | 69 | 11 | 4.0 | 9.0 | 0.00 | 0.00 | 0.00 | 82 | 1013.2 |
| 20260507103405 | 69 | 37 | 4.0 | 8.0 | 0.00 | 0.00 | 0.00 | 82 | 1013.3 |
| 20260507102904 | 69 | 18 | 2.0 | 8.0 | 0.00 | 0.00 | 0.00 | 82 | 1013.0 |
| 20260507102404 | 69 | 352 | 2.0 | 8.0 | 0.00 | 0.00 | 0.00 | 81 | 1012.9 |
| 20260507101905 | 69 | 13 | 5.0 | 8.0 | 0.00 | 0.00 | 0.00 | 81 | 1012.8 |
| 20260507100904 | 69 | 358 | 3.0 | 13.0 | 0.00 | 0.00 | 0.00 | 81 | 1012.8 |
| 20260507100403 | 69 | 12 | 5.0 | 13.0 | 0.00 | 0.00 | 0.00 | 81 | 1012.5 |
| 20260507095905 | 69 | 355 | 5.0 | 12.0 | 0.00 | 0.00 | 0.00 | 82 | 1012.6 |
| 20260507095404 | 69 | 21 | 3.0 | 12.0 | 0.00 | 0.00 | 0.00 | 81 | 1012.7 |
| 20260507094904 | 69 | 18 | 6.0 | 12.0 | 0.00 | 0.00 | 0.00 | 81 | 1012.6 |
| 20260507094404 | 70 | 1 | 5.0 | 12.0 | 0.00 | 0.00 | 0.00 | 81 | 1012.7 |
| 20260507093904 | 70 | 9 | 7.0 | 12.0 | 0.00 | 0.00 | 0.00 | 81 | 1012.5 |
| 20260507091904 | 70 | 45 | 2.0 | 12.0 | 0.00 | 0.00 | 0.00 | 81 | 1012.6 |
| 20260507091404 | 70 | 1 | 6.0 | 12.0 | 0.00 | 0.00 | 0.00 | 81 | 1012.5 |
| 20260507090904 | 70 | 16 | 3.0 | 9.0 | 0.00 | 0.00 | 0.00 | 81 | 1012.5 |
| 20260507090403 | 70 | 357 | 4.0 | 10.0 | 0.00 | 0.00 | 0.00 | 81 | 1012.4 |
| 20260507085404 | 70 | 27 | 5.0 | 12.0 | 0.00 | 0.00 | 0.00 | 81 | 1012.2 |
| 20260507084404 | 71 | 8 | 2.0 | 10.0 | 0.00 | 0.00 | 0.00 | 81 | 1012.2 |
| 20260507083404 | 71 | 353 | 7.0 | 12.0 | 0.00 | 0.00 | 0.00 | 80 | 1012.0 |
| 20260507082904 | 71 | 53 | 5.0 | 15.0 | 0.00 | 0.00 | 0.00 | 80 | 1012.0 |
| 20260507082404 | 71 | 47 | 7.0 | 15.0 | 0.00 | 0.00 | 0.00 | 80 | 1012.0 |
| 20260507081404 | 71 | 0 | 5.0 | 12.0 | 0.00 | 0.00 | 0.00 | 81 | 1012.2 |
| 20260507080904 | 72 | 5 | 5.0 | 12.0 | 0.00 | 0.00 | 0.00 | 81 | 1012.3 |
| 20260507080404 | 72 | 5 | 6.0 | 12.0 | 0.00 | 0.00 | 0.00 | 81 | 1012.1 |
| 20260507075904 | 72 | 13 | 3.0 | 12.0 | 0.00 | 0.00 | 0.00 | 81 | 1012.0 |
| 20260507075404 | 72 | 10 | 6.0 | 13.0 | 0.00 | 0.00 | 0.00 | 81 | 1012.1 |
| 20260507074904 | 72 | 31 | 6.0 | 13.0 | 0.00 | 0.00 | 0.00 | 81 | 1012.1 |
| 20260507074404 | 72 | 17 | 5.0 | 12.0 | 0.00 | 0.00 | 0.00 | 81 | 1012.2 |
| 20260507073904 | 72 | 345 | 5.0 | 12.0 | 0.00 | 0.00 | 0.00 | 81 | 1012.2 |
| 20260507073404 | 72 | 6 | 6.0 | 12.0 | 0.00 | 0.00 | 0.00 | 81 | 1012.2 |
| 20260507072904 | 72 | 24 | 6.0 | 12.0 | 0.00 | 0.00 | 0.00 | 81 | 1012.3 |
| 20260507072403 | 72 | 20 | 3.0 | 12.0 | 0.00 | 0.00 | 0.00 | 81 | 1012.4 |
| 20260507071904 | 72 | 5 | 6.0 | 12.0 | 0.00 | 0.00 | 0.00 | 81 | 1012.4 |
| 20260507071404 | 73 | 10 | 3.0 | 10.0 | 0.00 | 0.00 | 0.00 | 80 | 1012.4 |
| 20260507070404 | 73 | 359 | 6.0 | 14.0 | 0.00 | 0.00 | 0.00 | 80 | 1012.4 |
| 20260507065904 | 73 | 18 | 7.0 | 14.0 | 0.00 | 0.00 | 0.00 | 80 | 1012.4 |
| 20260507065404 | 73 | 15 | 6.0 | 12.0 | 0.00 | 0.00 | 0.00 | 80 | 1012.4 |
| 20260507064404 | 73 | 6 | 4.0 | 12.0 | 0.00 | 0.00 | 0.00 | 80 | 1012.3 |
| 20260507063904 | 73 | 349 | 5.0 | 12.0 | 0.00 | 0.00 | 0.00 | 80 | 1012.3 |
| 20260507063405 | 73 | 346 | 3.0 | 14.0 | 0.00 | 0.00 | 0.00 | 80 | 1012.4 |
| 20260507062904 | 74 | 10 | 6.0 | 14.0 | 0.00 | 0.00 | 0.00 | 80 | 1012.4 |
| 20260507062404 | 74 | 8 | 3.0 | 12.0 | 0.00 | 0.00 | 0.00 | 81 | 1012.4 |
| 20260507061905 | 74 | 11 | 3.0 | 12.0 | 0.00 | 0.00 | 0.00 | 81 | 1012.3 |
| 20260507061405 | 74 | 355 | 6.0 | 12.0 | 0.00 | 0.00 | 0.00 | 81 | 1012.3 |
| 20260507060904 | 74 | 36 | 5.0 | 12.0 | 0.00 | 0.00 | 0.00 | 81 | 1012.2 |
| 20260507060404 | 74 | 38 | 4.0 | 10.0 | 0.00 | 0.00 | 0.00 | 81 | 1012.0 |
| 20260507055904 | 74 | 0 | 5.0 | 10.0 | 0.00 | 0.00 | 0.00 | 80 | 1011.9 |
| 20260507055405 | 74 | 9 | 6.0 | 12.0 | 0.00 | 0.00 | 0.00 | 80 | 1011.9 |
| 20260507054904 | 74 | 3 | 6.0 | 12.0 | 0.00 | 0.00 | 0.00 | 81 | 1011.9 |
| 20260507053404 | 74 | 24 | 4.0 | 10.0 | 0.00 | 0.00 | 0.00 | 82 | 1012.0 |
| 20260507052904 | 75 | 11 | 4.0 | 10.0 | 0.00 | 0.00 | 0.00 | 82 | 1012.1 |
| 20260507052404 | 75 | 21 | 4.0 | 10.0 | 0.00 | 0.00 | 0.00 | 82 | 1012.0 |
| 20260507051903 | 75 | 25 | 3.0 | 10.0 | 0.00 | 0.00 | 0.00 | 82 | 1012.0 |
| 20260507051405 | 75 | 7 | 2.0 | 7.0 | 0.00 | 0.00 | 0.00 | 83 | 1011.9 |
| 20260507050403 | 75 | 9 | 5.0 | 10.0 | 0.00 | 0.00 | 0.00 | 83 | 1011.9 |
| 20260507045905 | 75 | 16 | 4.0 | 8.0 | 0.00 | 0.00 | 0.00 | 83 | 1012.0 |
| 20260507045404 | 75 | 18 | 2.0 | 9.0 | 0.00 | 0.00 | 0.00 | 83 | 1012.0 |
| 20260507044904 | 75 | 8 | 6.0 | 9.0 | 0.00 | 0.00 | 0.00 | 83 | 1012.0 |
| 20260507044404 | 76 | 5 | 2.0 | 10.0 | 0.00 | 0.00 | 0.00 | 83 | 1012.0 |
| 20260507043904 | 76 | 349 | 5.0 | 12.0 | 0.00 | 0.00 | 0.00 | 82 | 1012.0 |
| 20260507042904 | 76 | 349 | 4.0 | 10.0 | 0.00 | 0.00 | 0.00 | 82 | 1012.2 |
| 20260507042403 | 76 | 318 | 5.0 | 12.0 | 0.00 | 0.00 | 0.00 | 81 | 1012.1 |
| 20260507041904 | 77 | 315 | 2.0 | 12.0 | 0.00 | 0.00 | 0.00 | 81 | 1012.0 |
| 20260507041404 | 77 | 351 | 3.0 | 12.0 | 0.00 | 0.00 | 0.00 | 81 | 1011.9 |
| 20260507040904 | 78 | 345 | 3.0 | 12.0 | 0.00 | 0.00 | 0.00 | 82 | 1011.8 |
| 20260507040404 | 78 | 335 | 3.0 | 10.0 | 0.00 | 0.00 | 0.00 | 83 | 1011.6 |
| 20260507035405 | 79 | 181 | 0.0 | 0.0 | 0.00 | 0.00 | 0.00 | 85 | 1011.4 |
| 20260507034405 | 79 | 181 | 0.0 | 0.0 | 0.00 | 0.00 | 0.00 | 85 | 1011.3 |
| 20260507033905 | 79 | 181 | 0.0 | 0.0 | 0.00 | 0.00 | 0.00 | 85 | 1011.3 |
| 20260507033404 | 79 | 181 | 0.0 | 0.0 | 0.00 | 0.00 | 0.00 | 85 | 1011.3 |
| 20260507032404 | 79 | 181 | 0.0 | 0.0 | 0.00 | 0.00 | 0.00 | 85 | 1011.0 |
| 20260507031905 | 79 | 181 | 0.0 | 2.0 | 0.00 | 0.00 | 0.00 | 85 | 1010.9 |
| 20260507031405 | 79 | 181 | 0.0 | 2.0 | 0.00 | 0.00 | 0.00 | 85 | 1010.9 |
| 20260507030904 | 79 | 181 | 1.0 | 3.0 | 0.00 | 0.00 | 0.00 | 85 | 1010.7 |
| 20260507030404 | 79 | 181 | 1.0 | 3.0 | 0.00 | 0.00 | 0.00 | 85 | 1010.6 |
| 20260507025904 | 79 | 181 | 1.0 | 3.0 | 0.00 | 0.00 | 0.00 | 85 | 1010.5 |
| 20260507025404 | 79 | 182 | 1.0 | 3.0 | 0.00 | 0.00 | 0.00 | 84 | 1010.5 |
| 20260507024904 | 79 | 182 | 0.0 | 2.0 | 0.00 | 0.00 | 0.00 | 84 | 1010.3 |
| 20260507024404 | 80 | 182 | 0.0 | 2.0 | 0.00 | 0.00 | 0.00 | 84 | 1010.3 |
| 20260507023904 | 80 | 182 | 0.0 | 3.0 | 0.00 | 0.00 | 0.00 | 84 | 1010.2 |
| 20260507023404 | 80 | 182 | 0.0 | 5.0 | 0.00 | 0.00 | 0.00 | 84 | 1010.2 |
| 20260507022905 | 80 | 182 | 1.0 | 5.0 | 0.00 | 0.00 | 0.00 | 84 | 1010.2 |
| 20260507022404 | 80 | 204 | 1.0 | 3.0 | 0.00 | 0.00 | 0.00 | 83 | 1010.0 |
| 20260507021903 | 80 | 206 | 1.0 | 2.0 | 0.00 | 0.00 | 0.00 | 83 | 1010.1 |
| 20260507021405 | 80 | 206 | 0.0 | 2.0 | 0.00 | 0.00 | 0.00 | 83 | 1010.0 |
| 20260507020904 | 80 | 206 | 0.0 | 2.0 | 0.00 | 0.00 | 0.00 | 83 | 1010.0 |
| 20260507020403 | 80 | 206 | 0.0 | 1.0 | 0.00 | 0.00 | 0.00 | 83 | 1010.0 |
| 20260507015904 | 80 | 206 | 0.0 | 2.0 | 0.00 | 0.00 | 0.00 | 82 | 1009.9 |
| 20260507015404 | 80 | 206 | 1.0 | 3.0 | 0.00 | 0.00 | 0.00 | 82 | 1009.7 |
| 20260507014904 | 80 | 206 | 1.0 | 3.0 | 0.00 | 0.00 | 0.00 | 82 | 1009.7 |
| 20260507014404 | 80 | 206 | 1.0 | 3.0 | 0.00 | 0.00 | 0.00 | 82 | 1009.5 |
| 20260507013905 | 80 | 208 | 1.0 | 3.0 | 0.00 | 0.00 | 0.00 | 82 | 1009.4 |
| 20260507013405 | 81 | 208 | 1.0 | 5.0 | 0.00 | 0.00 | 0.00 | 82 | 1009.3 |
| 20260507012904 | 81 | 208 | 2.0 | 6.0 | 0.00 | 0.00 | 0.00 | 82 | 1009.4 |
| 20260507012405 | 81 | 171 | 3.0 | 6.0 | 0.00 | 0.00 | 0.00 | 82 | 1009.3 |
| 20260507011905 | 81 | 166 | 2.0 | 7.0 | 0.00 | 0.00 | 0.00 | 81 | 1009.2 |
| 20260507010904 | 81 | 164 | 2.0 | 5.0 | 0.00 | 0.00 | 0.00 | 81 | 1008.9 |
| 20260507005905 | 81 | 203 | 1.0 | 6.0 | 0.00 | 0.00 | 0.00 | 80 | 1008.9 |
| 20260507005404 | 81 | 187 | 3.0 | 8.0 | 0.00 | 0.00 | 0.00 | 80 | 1008.9 |
| 20260507004904 | 82 | 179 | 4.0 | 8.0 | 0.00 | 0.00 | 0.00 | 80 | 1008.8 |
| 20260507004405 | 82 | 181 | 4.0 | 6.0 | 0.00 | 0.00 | 0.00 | 80 | 1008.7 |
| 20260507003904 | 82 | 175 | 1.0 | 6.0 | 0.00 | 0.00 | 0.00 | 79 | 1008.9 |
| 20260507002904 | 82 | 160 | 2.0 | 5.0 | 0.00 | 0.00 | 0.00 | 79 | 1008.9 |
| 20260507002404 | 82 | 154 | 1.0 | 5.0 | 0.00 | 0.00 | 0.00 | 79 | 1008.7 |
| 20260507001904 | 83 | 186 | 2.0 | 5.0 | 0.00 | 0.00 | 0.00 | 78 | 1008.7 |
| 20260507000904 | 83 | 177 | 2.0 | 7.0 | 0.00 | 0.00 | 0.00 | 78 | 1008.6 |
| 20260507000405 | 83 | 183 | 3.0 | 7.0 | 0.00 | 0.00 | 0.00 | 78 | 1008.6 |
| 20260506235904 | 83 | 194 | 3.0 | 7.0 | 0.00 | 0.00 | 0.00 | 78 | 1008.5 |
| 20260506235404 | 83 | 166 | 1.0 | 7.0 | 0.00 | 0.00 | 0.00 | 77 | 1008.5 |
| 20260506234904 | 83 | 199 | 2.0 | 7.0 | 0.00 | 0.00 | 0.00 | 77 | 1008.5 |
| 20260506234405 | 84 | 152 | 3.0 | 7.0 | 0.00 | 0.00 | 0.00 | 77 | 1008.5 |
| 20260506233905 | 84 | 180 | 2.0 | 7.0 | 0.00 | 0.00 | 0.00 | 77 | 1008.4 |
| 20260506233403 | 84 | 179 | 2.0 | 7.0 | 0.00 | 0.00 | 0.00 | 77 | 1008.4 |
| 20260506232905 | 84 | 180 | 2.0 | 8.0 | 0.00 | 0.00 | 0.00 | 77 | 1008.5 |
| 20260506232405 | 84 | 162 | 2.0 | 8.0 | 0.00 | 0.00 | 0.00 | 77 | 1008.5 |
| 20260506231904 | 84 | 158 | 2.0 | 8.0 | 0.00 | 0.00 | 0.00 | 76 | 1008.5 |
| 20260506231404 | 84 | 177 | 3.0 | 9.0 | 0.00 | 0.00 | 0.00 | 76 | 1008.4 |
| 20260506230904 | 84 | 188 | 3.0 | 10.0 | 0.00 | 0.00 | 0.00 | 76 | 1008.3 |
| 20260506225904 | 84 | 186 | 2.0 | 8.0 | 0.00 | 0.00 | 0.00 | 76 | 1008.2 |
| 20260506225405 | 85 | 167 | 1.0 | 7.0 | 0.00 | 0.00 | 0.00 | 75 | 1008.2 |
| 20260506224404 | 85 | 173 | 5.0 | 10.0 | 0.00 | 0.00 | 0.00 | 75 | 1008.0 |
| 20260506223904 | 85 | 157 | 3.0 | 10.0 | 0.00 | 0.00 | 0.00 | 75 | 1008.1 |
| 20260506222905 | 85 | 171 | 5.0 | 10.0 | 0.00 | 0.00 | 0.00 | 75 | 1008.1 |
| 20260506222405 | 85 | 176 | 4.0 | 9.0 | 0.00 | 0.00 | 0.00 | 75 | 1008.2 |
| 20260506221904 | 85 | 181 | 4.0 | 10.0 | 0.00 | 0.00 | 0.00 | 74 | 1008.3 |
| 20260506221404 | 85 | 156 | 3.0 | 12.0 | 0.00 | 0.00 | 0.00 | 73 | 1008.3 |
| 20260506220404 | 86 | 169 | 4.0 | 12.0 | 0.00 | 0.00 | 0.00 | 72 | 1008.3 |
| 20260506215903 | 87 | 139 | 5.0 | 12.0 | 0.00 | 0.00 | 0.00 | 71 | 1008.2 |
| 20260506215404 | 87 | 224 | 3.0 | 8.0 | 0.00 | 0.00 | 0.00 | 71 | 1008.2 |
| 20260506214905 | 87 | 171 | 4.0 | 8.0 | 0.00 | 0.00 | 0.00 | 70 | 1008.2 |
| 20260506214403 | 88 | 161 | 2.0 | 8.0 | 0.00 | 0.00 | 0.00 | 70 | 1008.2 |
| 20260506213404 | 88 | 177 | 2.0 | 6.0 | 0.00 | 0.00 | 0.00 | 70 | 1008.3 |
| 20260506212904 | 88 | 190 | 3.0 | 8.0 | 0.00 | 0.00 | 0.00 | 69 | 1008.3 |
| 20260506212404 | 88 | 187 | 5.0 | 8.0 | 0.00 | 0.00 | 0.00 | 70 | 1008.3 |
| 20260506211904 | 88 | 170 | 2.0 | 7.0 | 0.00 | 0.00 | 0.00 | 70 | 1008.3 |
| 20260506211404 | 88 | 182 | 3.0 | 7.0 | 0.00 | 0.00 | 0.00 | 71 | 1008.3 |
| 20260506210904 | 88 | 213 | 1.0 | 12.0 | 0.00 | 0.00 | 0.00 | 71 | 1008.3 |
| 20260506205904 | 87 | 161 | 5.0 | 10.0 | 0.00 | 0.00 | 0.00 | 71 | 1008.3 |
| 20260506204904 | 87 | 178 | 6.0 | 14.0 | 0.00 | 0.00 | 0.00 | 72 | 1008.4 |
| 20260506204404 | 87 | 172 | 4.0 | 9.0 | 0.00 | 0.00 | 0.00 | 72 | 1008.5 |
| 20260506203904 | 87 | 163 | 5.0 | 10.0 | 0.00 | 0.00 | 0.00 | 72 | 1008.5 |
| 20260506203404 | 87 | 203 | 2.0 | 15.0 | 0.00 | 0.00 | 0.00 | 74 | 1008.6 |
| 20260506202404 | 85 | 175 | 7.0 | 15.0 | 0.00 | 0.00 | 0.00 | 77 | 1008.7 |
| 20260506201903 | 85 | 151 | 1.0 | 10.0 | 0.00 | 0.00 | 0.00 | 76 | 1008.8 |
| 20260506201404 | 85 | 171 | 5.0 | 10.0 | 0.00 | 0.00 | 0.00 | 76 | 1008.9 |
| 20260506200905 | 85 | 175 | 4.0 | 12.0 | 0.00 | 0.00 | 0.00 | 76 | 1009.0 |
| 20260506200404 | 85 | 183 | 3.0 | 12.0 | 0.00 | 0.00 | 0.00 | 76 | 1009.0 |
| 20260506195904 | 85 | 161 | 5.0 | 10.0 | 0.00 | 0.00 | 0.00 | 75 | 1009.1 |
| 20260506195404 | 86 | 162 | 4.0 | 10.0 | 0.00 | 0.00 | 0.00 | 74 | 1009.1 |
| 20260506194904 | 86 | 196 | 4.0 | 12.0 | 0.00 | 0.00 | 0.00 | 74 | 1009.1 |
| 20260506194404 | 86 | 158 | 5.0 | 13.0 | 0.00 | 0.00 | 0.00 | 74 | 1009.1 |
| 20260506193904 | 86 | 158 | 5.0 | 13.0 | 0.00 | 0.00 | 0.00 | 75 | 1009.2 |
| 20260506193403 | 86 | 164 | 2.0 | 12.0 | 0.00 | 0.00 | 0.00 | 74 | 1009.2 |
| 20260506192904 | 86 | 175 | 5.0 | 12.0 | 0.00 | 0.00 | 0.00 | 74 | 1009.2 |